This is the latest recevied weather packets stored in our database for station/object KE4AMH. If no packets are shown the sender has not sent any weather packets the latest 10 day(s).
| Time | Temp. | Humidity | Pressure | Rain* | Wind** | Luminosity | Snow |
|---|---|---|---|---|---|---|---|
| 1778178027 | 23.89° C | 85% | 1009.8 hPa | 0 mm | - | 664 W/m² | - |
| 1778177724 | 23.33° C | 85% | 1010 hPa | 0 mm | - | 537 W/m² | - |
| 1778177420 | 23.33° C | 83% | 1010.1 hPa | 0 mm | - | 226 W/m² | - |
| 1778177116 | 23.33° C | 87% | 1010.1 hPa | 0 mm | - | 785 W/m² | - |
| 1778176813 | 22.78° C | 85% | 1009.9 hPa | 0 mm | - | 231 W/m² | - |
| 1778176510 | 22.78° C | 86% | 1010.2 hPa | 0 mm | - | 226 W/m² | - |
| 1778176207 | 22.78° C | 85% | 1010 hPa | 0 mm | - | 467 W/m² | - |
| 1778175904 | 21.67° C | 88% | 1010.3 hPa | 0 mm | - | 166 W/m² | - |
| 1778175602 | 22.22° C | 88% | 1010.1 hPa | 0 mm | - | 144 W/m² | - |
| 1778175299 | 23.33° C | 88% | 1010 hPa | 0 mm | - | 217 W/m² | - |
| 1778174995 | 22.78° C | 88% | 1010 hPa | 0 mm | - | 641 W/m² | - |
| 1778174692 | 22.78° C | 90% | 1010.3 hPa | 0 mm | - | 820 W/m² | - |
| 1778174389 | 21.67° C | 91% | 1009.8 hPa | 0 mm | - | 736 W/m² | - |
| 1778174084 | 22.22° C | 93% | 1010 hPa | 0 mm | - | 410 W/m² | - |
| 1778173782 | 21.11° C | 94% | 1010.3 hPa | 0 mm | - | 505 W/m² | - |
| 1778173478 | 20.56° C | 99% | 1010 hPa | 0 mm | - | 851 W/m² | - |
| 1778173175 | 20° C | 99% | 1010.3 hPa | 0 mm | - | 888 W/m² | - |
| 1778172871 | 20° C | 99% | 1010.3 hPa | 0 mm | - | 697 W/m² | - |
| 1778172566 | 20° C | 99% | 1010 hPa | 0 mm | - | 300 W/m² | - |
| 1778172264 | 20° C | 99% | 1010.1 hPa | 0 mm | - | 814 W/m² | - |
| 1778171961 | 19.44° C | 99% | 1010.3 hPa | 0 mm | - | 865 W/m² | - |
| 1778171658 | 19.44° C | 99% | 1010.3 hPa | 0 mm | - | 806 W/m² | - |
| 1778171355 | 19.44° C | 99% | 1010.1 hPa | 0 mm | - | 234 W/m² | - |
| 1778171050 | 19.44° C | 99% | 1010 hPa | 0 mm | - | 455 W/m² | - |
| 1778170748 | 19.44° C | 99% | 1009.9 hPa | 0 mm | - | 774 W/m² | - |
* Rain latest hour (hover to see other rain measurements)
** Current wind speed in m/s (hover to see current wind gust speed)